This demonstration page uses our WeatherBlox Daily Observations layout. Learn more.

Left ArrowRight Arrow

47.50024, -111.30081

Hourly Observations for January 11, 2018

Temp ( °F °C ) Dew Point ( °F °C ) Humidity (%) Winds ( mph kmh ) Pressure ( in mb ) Visibility ( mi km ) Precip ( " mm )
12:33 am 00:33 Cloudy -3 -19.4 -9 -22.8 75 75 N 8 13 30.56 1035 10 16 0.00 0.03
12:53 am 00:53 Cloudy -3 -19.4 -9 -22.8 75 75 N 8 13 30.41 1030 10 16 0.00 0.03
1:53 am 01:53 Cloudy -4 -20 -9 -22.8 79 79 NW 5 7 30.44 1031 10 16 0.00 0.03
2:53 am 02:53 Cloudy -4 -20 -9 -22.8 79 79 NNW 6 9 30.45 1031 10 16 0.00 0.00
3:53 am 03:53 Cloudy -4 -20 -9 -22.8 79 79 N 6 9 30.48 1032 9 14 0.00 0.00
4:53 am 04:53 Cloudy -4 -20 -10 -23.3 75 75 Calm 30.48 1032 10 16 0.00 0.00
5:53 am 05:53 Cloudy -4 -20 -10 -23.3 75 75 NNW 5 7 30.46 1032 10 16 0.00 0.00
6:19 am 06:19 Cloudy -4 -20 -10 -23.3 75 75 N 3 6 30.59 1036 10 16 0.00 0.00
6:27 am 06:27 Cloudy -4 -20 -10 -23.3 75 75 N 3 6 30.59 1036 10 16 0.00 0.00
6:53 am 06:53 Cloudy -4 -20 -9 -22.8 79 79 N 5 7 30.45 1031 10 16 0.00 0.00
7:53 am 07:53 Cloudy -4 -20 -9 -22.8 79 79 NNE 5 7 30.46 1031 10 16 0.00 0.00
8:53 am 08:53 Cloudy -3 -19.4 -8 -22.2 79 79 E 5 7 30.45 1031 10 16 0.00 0.00
9:12 am 09:12 Cloudy -3 -19.4 -8 -22.2 79 79 NE 3 6 30.59 1036 10 16 0.00 0.00
9:29 am 09:29 Cloudy -2 -18.9 -8 -22.2 75 75 NE 6 9 30.59 1036 10 16 0.00 0.00
9:53 am 09:53 Mostly Cloudy -2 -18.9 -8 -22.2 75 75 NE 7 11 30.45 1031 10 16 0.00 0.00
10:08 am 10:08 Cloudy with Haze -3 -19.4 -8 -22.2 79 79 NE 10 17 30.59 1036 3 5 0.00 0.00
10:26 am 10:26 Cloudy -3 -19.4 -8 -22.2 79 79 ENE 9 15 30.59 1036 9 14 0.00 0.00
10:53 am 10:53 Cloudy -2 -18.9 -8 -22.2 75 75 E 9 15 30.45 1031 10 16 0.00 0.00
11:53 am 11:53 Cloudy -2 -18.9 -8 -22.2 75 75 NE 10 17 30.42 1030 10 16 0.00 0.00
12:15 pm 12:15 Cloudy -2 -18.9 -7 -21.7 79 79 NE 10 17 30.56 1035 10 16 0.00 0.00
12:53 pm 12:53 Partly Cloudy -2 -18.9 -8 -22.2 75 75 NE 10 17 30.37 1029 10 16 0.00 0.00
1:12 pm 13:12 Mostly Sunny -2 -18.9 -7 -21.7 79 79 NE 8 13 30.48 1032 7 11 0.00 0.00
1:32 pm 13:32 Mostly Cloudy with Haze -2 -18.9 -8 -22.2 75 75 NNE 9 15 30.48 1032 5 8 0.00 0.00
1:53 pm 13:53 Cloudy -2 -18.9 -8 -22.2 75 75 NE 9 15 30.34 1028 9 14 0.00 0.00
2:02 pm 14:02 Cloudy -2 -18.9 -8 -22.2 75 75 NE 10 17 30.45 1031 9 14 0.00 0.00
2:53 pm 14:53 Cloudy -2 -18.9 -7 -21.7 79 79 NE 9 15 30.31 1026 10 16 0.00 0.00
3:53 pm 15:53 Cloudy -2 -18.9 -8 -22.2 75 75 NE 8 13 30.31 1026 10 16 0.00 0.00
4:35 pm 16:35 Cloudy with Light Snow -3 -19.4 -8 -22.2 79 79 ENE 8 13 30.42 1030 1 2 0.00 0.03
4:46 pm 16:46 Cloudy with Light Snow -3 -19.4 -8 -22.2 79 79 ENE 8 13 30.42 1030 1 1 0.00 0.03
4:53 pm 16:53 Cloudy with Light Snow -3 -19.4 -8 -22.2 79 79 ENE 9 15 30.29 1026 1 1 0.01 0.25
5:04 pm 17:04 Cloudy with Light Snow -3 -19.4 -8 -22.2 79 79 NE 8 13 30.42 1030 1 2 0.00 0.03
5:19 pm 17:19 Cloudy with Light Snow -3 -19.4 -8 -22.2 79 79 ENE 7 11 30.42 1030 1 2 0.00 0.03
5:53 pm 17:53 Cloudy with Light Snow -3 -19.4 -8 -22.2 79 79 NE 7 11 30.28 1025 1 2 0.01 0.25
6:09 pm 18:09 Cloudy with Light Snow -3 -19.4 -8 -22.2 79 79 NE 6 9 30.39 1029 1 2 0.00 0.03
6:18 pm 18:18 Cloudy with Light Snow -3 -19.4 -8 -22.2 79 79 ENE 6 9 30.39 1029 2 3 0.00 0.03
6:26 pm 18:26 Cloudy with Light Snow -2 -18.9 -8 -22.2 75 75 NE 7 11 30.39 1029 2 3 0.00 0.03
6:53 pm 18:53 Cloudy with Light Snow -2 -18.9 -8 -22.2 75 75 ENE 7 11 30.27 1025 2 3 0.01 0.25
7:10 pm 19:10 Cloudy with Light Snow -2 -18.9 -7 -21.7 79 79 NE 6 9 30.39 1029 2 3 0.00 0.03
7:28 pm 19:28 Mostly Cloudy with Light Snow -2 -18.9 -7 -21.7 79 79 NE 7 11 30.39 1029 1 2 0.01 0.25
7:40 pm 19:40 Mostly Cloudy with Light Snow -2 -18.9 -7 -21.7 79 79 NE 7 11 30.39 1029 1 2 0.02 0.51
7:49 pm 19:49 Cloudy with Light Snow 0 -18 -8 -22 71 71 NE 6 9 30.36 1028 1 2 0.03 0.76
7:53 pm 19:53 Cloudy with Light Snow -1 -18.3 -7 -21.7 75 75 NE 7 11 30.25 1024 1 2 0.03 0.76
8:18 pm 20:18 Mostly Cloudy with Light Snow -1 -18.3 -6 -21.1 79 79 NE 6 9 30.36 1028 1 2 0.01 0.25
8:34 pm 20:34 Mostly Cloudy with Light Snow -1 -18.3 -7 -21.7 75 75 ENE 8 13 30.36 1028 1 1 0.02 0.51
8:42 pm 20:42 Mostly Cloudy with Light Snow -1 -18.3 -7 -21.7 75 75 NE 8 13 30.36 1028 1 2 0.03 0.76
8:53 pm 20:53 Cloudy with Light Snow -2 -18.9 -7 -21.7 79 79 NE 10 17 30.26 1025 1 2 0.04 1.02
9:25 pm 21:25 Cloudy with Light Snow -2 -18.9 -7 -21.7 79 79 NE 10 17 30.39 1029 1 2 0.02 0.51
9:53 pm 21:53 Mostly Cloudy with Light Snow -3 -19.4 -8 -22.2 79 79 NE 8 13 30.27 1025 1 2 0.03 0.76
10:07 pm 22:07 Mostly Cloudy with Light Snow -3 -19.4 -8 -22.2 79 79 NE 8 13 30.42 1030 1 1 0.01 0.25
10:38 pm 22:38 Cloudy with Light Snow -4 -20 -9 -22.8 79 79 NE 7 11 30.45 1031 1 1 0.03 0.76
10:53 pm 22:53 Mostly Cloudy with Light Snow -4 -20 -9 -22.8 79 79 NE 7 11 30.31 1026 1 1 0.03 0.76
11:19 pm 23:19 Mostly Cloudy with Light Snow -4 -20 -9 -22.8 79 79 NNE 5 7 30.48 1032 1 1 0.02 0.51
11:34 pm 23:34 Cloudy with Light Snow -4 -20 -9 -22.8 79 79 NNE 7 11 30.48 1032 1 1 0.02 0.51
11:53 pm 23:53 Cloudy with Light Snow -4 -20 -9 -22.8 79 79 NNE 7 11 30.34 1027 1 1 0.04 1.02

Powered by AerisWeather